INTELSAT 40E (IS-40E)

Last updated on Wed Oct 15 2025 00:02:50 GMT+0000 (Coordinated Universal Time)

1 56174U 23052A 25287.17614326 -.00000188 00000+0 00000+0 0 9995 2 56174 0.0135 216.2400 0002526 341.3937 157.7555 1.00270445 9359
UTC large
Height (km)
Speed (km/s)
/
Latitude / Longitude
Inclination (degrees)
Orbital Period (minutes)
Azimuth
Elevation
Range (km)
Doppler Factor

Next 0 passes for location: London (51.5072 / 0.1276)

Sorry there are no passes over London.